Agassiz, British Columbia

3:56 AM PST on February 25, 2017 (GMT -0800)
Agassiz

Weather History for CWZA - November, 2012

Change the Weather History Date:

Thursday, November 1, 2012

  Actual Average Record
Temperature  
Mean Temperature 48 °F -  
Max Temperature 52 °F 48 °F - ()
Min Temperature 45 °F 37 °F - ()
Degree Days  
Heating Degree Days 16    
Moisture  
Dew Point 48 °F    
Average Humidity 95    
Maximum Humidity 99    
Minimum Humidity 90    
Precipitation  
Precipitation 0.12 in 0.32 in - ()
Sea Level Pressure  
Sea Level Pressure 29.86 in    
Wind  
Wind Speed 1 mph ()    
Max Wind Speed 4 mph    
Max Gust Speed -    
T = Trace of Precipitation, MM = Missing Value Source: Averaged Metar Reports

Daily Weather History Graph

Daily Weather History Graph

Search for Another Location

Airport or City:

Trip Planner

Search our weather history database for the weather conditions in past years. The results will help you decide how hot, cold, wet, or windy it might be!

Date:

Astronomy

Nov. 01, 2012 Rise Set
Actual Time 7:55 AM PDT 5:44 PM PDT
Civil Twilight 7:22 AM PDT 6:18 PM PDT
Nautical Twilight 6:44 AM PDT 6:55 PM PDT
Astronomical Twilight 6:07 AM PDT 7:32 PM PDT
Moon 7:34 PM PDT (11/1) 10:44 AM PDT (11/1)
Length of Visible Light 10h 55m
Length of Day
9h 48m
Waning Gibbous, 92% of the Moon is Illuminated
Nov 1
Waning Gibbous
Nov 6
Last Quarter
Nov 13
New
Nov 20
First Quarter
Nov 28
Full

Hourly Weather History & Observations

Time (PDT) Temp. Dew Point Humidity Pressure Visibility Wind Dir Wind Speed Gust Speed Precip Events Conditions
12:00 AM 46.2 °F 45.5 °F 97% 29.73 in - WSW 1.2 mph - N/A   Unknown
1:00 AM 46.4 °F 45.7 °F 97% 29.74 in - Calm Calm - N/A   Unknown
2:00 AM 46.2 °F 45.7 °F 98% 29.74 in - SSW 1.2 mph - N/A   Unknown
3:00 AM 45.9 °F 45.3 °F 98% 29.75 in - SSE 1.2 mph - N/A   Unknown
4:00 AM 46.6 °F 46.0 °F 98% 29.75 in - SSW 2.3 mph - N/A   Unknown
5:00 AM 48 °F 47 °F 96% 29.77 in - Calm Calm - -  
5:00 AM 48.4 °F 47.1 °F 95% 29.77 in - Calm Calm - N/A   Unknown
6:00 AM 48.9 °F 47.3 °F 94% 29.78 in - NNE 1.2 mph - 0.04 in   Unknown
7:00 AM 48.2 °F 47.1 °F 96% 29.78 in - South 2.3 mph - N/A   Unknown
8:00 AM 47.7 °F 46.8 °F 97% 29.79 in - South 1.2 mph - 0.01 in   Unknown
9:00 AM 48.4 °F 46.9 °F 95% 29.81 in - South 3.5 mph - 0.02 in   Unknown
10:00 AM 49.5 °F 48.2 °F 95% 29.83 in - SE 2.3 mph - 0.02 in   Unknown
11:00 AM 51 °F 49 °F 91% 29.85 in - ESE 3.5 mph - -  
11:00 AM 50.7 °F 49.1 °F 94% 29.85 in - ESE 3.5 mph - 0.02 in   Unknown
12:00 PM 52.3 °F 49.5 °F 90% 29.86 in - SE 3.5 mph - N/A   Unknown
1:00 PM 52.0 °F 49.8 °F 92% 29.87 in - SW 2.3 mph - N/A   Unknown
2:00 PM 52.2 °F 49.6 °F 91% 29.88 in - SE 2.3 mph - N/A   Unknown
3:00 PM 52.0 °F 49.1 °F 90% 29.91 in - Calm Calm - N/A   Unknown
4:00 PM 52.7 °F 50.0 °F 91% 29.92 in - Calm Calm - N/A   Unknown
5:00 PM 52 °F 50 °F 90% 29.92 in - SSE 1.2 mph - -  
5:00 PM 52.0 °F 50.0 °F 93% 29.92 in - SSE 1.2 mph - N/A   Unknown
6:00 PM 51.1 °F 49.8 °F 95% 29.93 in - Calm Calm - N/A   Unknown
7:00 PM 50.2 °F 49.5 °F 97% 29.95 in - SW 1.2 mph - N/A   Unknown
8:00 PM 48.9 °F 48.4 °F 98% 29.96 in - Calm Calm - N/A   Unknown
9:00 PM 48.7 °F 48.2 °F 98% 29.98 in - Calm Calm - N/A   Unknown
10:00 PM 48.6 °F 48.2 °F 99% 30.00 in - Calm Calm - N/A   Unknown
11:00 PM 48 °F 48 °F 98% 30.00 in - Calm Calm - -  
11:00 PM 48.0 °F 47.7 °F 99% 30.00 in - Calm Calm - N/A   Unknown